Regional Weather Roundup
Issued by NWS Kansas City/Pleasant Hill, MO

Home | Current Version | Previous Version | Text Only | Print | Product List | Glossary On
Versions: 1 2 3 4 5 6 7 8 9 10 11 12 13 14 15 16 17 18 19 20 21 22 23 24 25 26 27 28 29 30 31 32 33 34 35 36 37 38 39 40 41 42 43 44 45 46 47 48 49 50
000
ASUS43 KEAX 011210
RWREAX

WEATHER ROUNDUP FOR EASTERN KANSAS AND NORTHWEST MISSOURI
NATIONAL WEATHER SERVICE KANSAS CITY/PLEASANT HILL MO
700 AM CDT TUE SEP 01 2015

KSZ040-057-103>105-MOZ028-029-037-043-011300-
...KANSAS CITY METROPOLITAN AREA...

CITY           SKY/WX    TMP DP  RH WIND       PRES   REMARKS
K.C. INTL      PTCLDY    73  68  84 S12       30.02R
6HR MIN TEMP:  72; 6HR MAX TEMP:  74;

K.C. DOWNTOWN  MOCLDY    75  68  78 S8        30.02R
6HR MIN TEMP:  75; 6HR MAX TEMP:  79;

LEES SUMMIT    PTCLDY    73  67  81 S7        30.05R
6HR MIN TEMP:  73; 6HR MAX TEMP:  77;

OLATHE - IXD   MOCLDY    71  68  90 S7        30.04R
6HR MIN TEMP:  71; 6HR MAX TEMP:  74;

OLATHE - OJC   MOCLDY    70  67  90 S7        30.04R
6HR MIN TEMP:  70; 6HR MAX TEMP:  74;

LAWRENCE       CLEAR     70  68  93 E6        30.02R

$$

MOZ001>008-011>017-020>025-030>033-038>040-044>046-053-054-011300-
...NORTHERN AND CENTRAL MISSOURI...

CITY           SKY/WX    TMP DP  RH WIND       PRES   REMARKS
ST. JOSEPH     CLEAR     72  69  90 S6        30.00R
6HR MIN TEMP:  71; 6HR MAX TEMP:  75;

MOSBY          MOSUNNY   70  68  94 SE3       30.03R
WARRENSBURG    CLEAR     70  64  83 SE6       30.05R
WHITEMAN AFB   CLEAR     69  66  88 S5        30.05R
6HR MIN TEMP:  69; 6HR MAX TEMP:  73;

CLINTON        CLEAR     72  66  83 S5        30.06S
SEDALIA        CLEAR     71  66  84 S8        30.07S
6HR MIN TEMP:  71; 6HR MAX TEMP:  76;

WARSAW         NOT AVBL
CHILLICOTHE      N/A     70  68  93 S3        30.04R
6HR MIN TEMP:  67; 6HR MAX TEMP:  73;

KIRKSVILLE     CLEAR     70  67  90 S5        30.06R FOG
6HR MIN TEMP:  70; 6HR MAX TEMP:  73;


$$

MOZ041-047>049-056>058-063>065-088>090-097-011300-
...EASTERN AND SOUTHERN MISSOURI...

CITY           SKY/WX    TMP DP  RH WIND       PRES   REMARKS
ST. LOUIS INTL PTCLDY    76  69  79 SW3       30.10R
6HR MIN TEMP:  75; 6HR MAX TEMP:  79;

SPIRIT OF STL  CLEAR     70  69  97 CALM      30.09R FOG
COLUMBIA       CLEAR     70  68  93 S6        30.08S
JEFFERSON CITY CLEAR     69  67  93 SE5       30.08R FOG
ROLLA          CLEAR     70  67  90 S8        30.10R
OSAGE BEACH    CLEAR     70  66  88 SE3       30.09S
SPRINGFIELD    CLEAR     69  65  86 SE8       30.09S
BRANSON        MOCLDY    66  66 100 CALM      30.12R
JOPLIN         CLEAR     70  65  84 S7        30.07R
WEST PLAINS    FOG       68  65  90 CALM      30.14R VSB 3/4

$$

IAZ060-094-KSZ022-034>040-054-083-096-NEZ052-066-093-011300-
...KANSAS...SOUTHEAST NEBRASKA AND IOWA...

CITY           SKY/WX    TMP DP  RH WIND       PRES   REMARKS
TOPEKA         CLEAR     71  68  90 CALM      30.01R
6HR MIN TEMP:  71; 6HR MAX TEMP:  77;

MANHATTAN      CLEAR     69  65  86 SW3       29.98R
EMPORIA        PTCLDY    69  66  90 S9        30.01S
CHANUTE        CLEAR     69  66  90 S5        30.05R
WICHITA        PTCLDY    69  63  81 S8        30.01S
OMAHA          PTCLDY    71  68  90 S9        29.94R
LINCOLN        PTCLDY    69  65  86 S8        29.94R
FALLS CITY     CLEAR     70  67  90 S6        29.97R
LAMONI         CLEAR     70  67  90 S9        30.01R FOG
DES MOINES     PTCLDY    69  66  90 S7        29.97R FOG

$$



USA.gov is the U.S. government's official web portal to all federal, state and local government web resources and services.